Time,TemperatureF,DewpointF,PressureIn,WindDirection,WindDirectionDegrees,WindSpeedMPH,WindSpeedGustMPH,Humidity,HourlyPrecipIn,Conditions,Clouds,dailyrainin,SoftwareType,DateUTC
2013-11-10 00:13:00,50.0,36.0,30.08,North,0,0.0,0.0,58,0.00,,,0.00,,2013-11-10 05:13:00,
2013-11-10 00:23:00,50.0,36.0,30.08,North,0,0.0,0.0,58,0.00,,,0.00,,2013-11-10 05:23:00,
2013-11-10 00:53:00,48.0,36.0,30.08,North,0,0.0,0.0,62,0.00,,,0.00,,2013-11-10 05:53:00,
2013-11-10 01:22:00,47.0,35.0,30.08,North,0,0.0,0.0,64,0.00,,,0.00,,2013-11-10 06:22:00,
2013-11-10 01:52:00,46.0,35.0,30.08,North,0,0.0,0.0,66,0.00,,,0.00,,2013-11-10 06:52:00,
2013-11-10 02:12:00,46.0,36.0,30.09,North,0,0.0,0.0,67,0.00,,,0.00,,2013-11-10 07:12:00,
2013-11-10 02:22:00,46.0,36.0,30.09,North,0,0.0,0.0,67,0.00,,,0.00,,2013-11-10 07:22:00,
2013-11-10 02:43:00,45.0,36.0,30.09,North,0,0.0,0.0,70,0.00,,,0.00,,2013-11-10 07:43:00,
2013-11-10 02:52:00,45.0,36.0,30.09,North,0,0.0,0.0,70,0.00,,,0.00,,2013-11-10 07:52:00,
2013-11-10 03:21:00,45.0,37.0,30.10,North,0,0.0,0.0,72,0.00,,,0.00,,2013-11-10 08:21:00,
2013-11-10 03:52:00,44.0,36.0,30.10,North,0,0.0,0.0,74,0.00,,,0.00,,2013-11-10 08:52:00,
2013-11-10 04:22:00,44.0,37.0,30.11,North,0,0.0,0.0,75,0.00,,,0.00,,2013-11-10 09:22:00,
2013-11-10 04:42:00,43.0,36.0,30.11,North,0,0.0,0.0,77,0.00,,,0.00,,2013-11-10 09:42:00,
2013-11-10 04:53:00,43.0,36.0,30.11,North,0,0.0,0.0,77,0.00,,,0.00,,2013-11-10 09:53:00,
2013-11-10 05:23:00,43.0,37.0,30.10,North,0,0.0,0.0,78,0.00,,,0.00,,2013-11-10 10:23:00,
2013-11-10 05:42:00,43.0,36.0,30.11,North,0,0.0,0.0,77,0.00,,,0.00,,2013-11-10 10:42:00,
2013-11-10 05:52:00,43.0,37.0,30.11,North,0,0.0,0.0,78,0.00,,,0.00,,2013-11-10 10:52:00,
2013-11-10 06:12:00,42.0,36.0,30.13,North,0,0.0,0.0,78,0.00,,,0.00,,2013-11-10 11:12:00,
2013-11-10 06:22:00,42.0,36.0,30.13,North,0,0.0,0.0,78,0.00,,,0.00,,2013-11-10 11:22:00,
2013-11-10 06:52:00,42.0,35.0,30.14,North,0,0.0,0.0,76,0.00,,,0.00,,2013-11-10 11:52:00,
2013-11-10 07:02:00,42.0,35.0,30.14,North,0,0.0,0.0,76,0.00,,,0.00,,2013-11-10 12:02:00,
2013-11-10 07:21:00,42.0,35.0,30.14,North,0,0.0,0.0,75,0.00,,,0.00,,2013-11-10 12:21:00,
2013-11-10 07:52:00,41.0,33.0,30.16,North,0,0.0,0.0,72,0.00,,,0.00,,2013-11-10 12:52:00,
2013-11-10 08:22:00,41.0,32.0,30.19,North,0,0.0,0.0,71,0.00,,,0.00,,2013-11-10 13:22:00,
2013-11-10 08:42:00,41.0,32.0,30.21,North,0,0.0,0.0,69,0.00,,,0.00,,2013-11-10 13:42:00,
2013-11-10 08:52:00,41.0,32.0,30.21,North,0,0.0,0.0,69,0.00,,,0.00,,2013-11-10 13:52:00,
2013-11-10 09:21:00,41.0,29.0,30.24,North,0,0.0,0.0,61,0.00,,,0.00,,2013-11-10 14:21:00,
2013-11-10 09:52:00,42.0,29.0,30.24,North,0,0.0,0.0,60,0.00,,,0.00,,2013-11-10 14:52:00,
2013-11-10 10:22:00,42.0,28.0,30.26,North,0,0.0,0.0,58,0.00,,,0.00,,2013-11-10 15:22:00,
2013-11-10 10:53:00,43.0,29.0,30.27,North,0,0.0,0.0,58,0.00,,,0.00,,2013-11-10 15:53:00,
2013-11-10 11:23:00,43.0,28.0,30.27,North,0,0.0,0.0,56,0.00,,,0.00,,2013-11-10 16:23:00,
2013-11-10 11:33:00,43.0,28.0,30.27,North,0,0.0,0.0,56,0.00,,,0.00,,2013-11-10 16:33:00,
2013-11-10 11:53:00,44.0,28.0,30.29,North,0,0.0,0.0,54,0.00,,,0.00,,2013-11-10 16:53:00,
2013-11-10 12:02:00,44.0,28.0,30.29,North,0,0.0,0.0,54,0.00,,,0.00,,2013-11-10 17:02:00,
2013-11-10 12:23:00,44.0,28.0,30.27,North,0,0.0,0.0,52,0.00,,,0.00,,2013-11-10 17:23:00,
2013-11-10 12:52:00,46.0,29.0,30.27,North,0,0.0,0.0,52,0.00,,,0.00,,2013-11-10 17:52:00,
2013-11-10 13:13:00,46.0,28.0,30.27,North,0,0.0,0.0,49,0.00,,,0.00,,2013-11-10 18:13:00,
2013-11-10 13:24:00,46.0,28.0,30.27,North,0,0.0,0.0,49,0.00,,,0.00,,2013-11-10 18:24:00,
2013-11-10 13:42:00,47.0,29.0,30.27,North,0,0.0,0.0,50,0.00,,,0.00,,2013-11-10 18:42:00,
2013-11-10 13:52:00,47.0,29.0,30.29,North,0,0.0,0.0,50,0.00,,,0.00,,2013-11-10 18:52:00,
2013-11-10 14:02:00,47.0,29.0,30.29,North,0,0.0,0.0,50,0.00,,,0.00,,2013-11-10 19:02:00,
2013-11-10 14:22:00,47.0,30.0,30.29,North,0,0.0,0.0,51,0.00,,,0.00,,2013-11-10 19:22:00,
2013-11-10 14:32:00,47.0,30.0,30.29,North,0,0.0,0.0,51,0.00,,,0.00,,2013-11-10 19:32:00,
2013-11-10 14:42:00,47.0,30.0,30.29,North,0,0.0,0.0,51,0.00,,,0.00,,2013-11-10 19:42:00,
2013-11-10 14:52:00,47.0,30.0,30.29,North,0,0.0,0.0,51,0.00,,,0.00,,2013-11-10 19:52:00,
2013-11-10 15:22:00,47.0,29.0,30.29,North,0,0.0,0.0,50,0.00,,,0.00,,2013-11-10 20:22:00,
2013-11-10 15:42:00,46.0,29.0,30.29,North,0,0.0,0.0,51,0.00,,,0.00,,2013-11-10 20:42:00,
2013-11-10 15:50:00,46.0,29.0,30.31,North,0,0.0,0.0,52,0.00,,,0.00,,2013-11-10 20:50:00,
2013-11-10 15:53:00,46.0,29.0,30.29,North,0,0.0,0.0,51,0.00,,,0.00,,2013-11-10 20:53:00,
2013-11-10 16:11:00,46.0,29.0,30.31,North,0,0.0,0.0,52,0.00,,,0.00,,2013-11-10 21:11:00,
2013-11-10 16:22:00,46.0,29.0,30.31,North,0,0.0,0.0,52,0.00,,,0.00,,2013-11-10 21:22:00,
2013-11-10 16:33:00,46.0,29.0,30.31,North,0,0.0,0.0,52,0.00,,,0.00,,2013-11-10 21:33:00,
2013-11-10 17:24:00,44.0,29.0,30.32,North,0,0.0,0.0,56,0.00,,,0.00,,2013-11-10 22:24:00,
2013-11-10 17:43:00,44.0,30.0,30.32,North,0,0.0,0.0,57,0.00,,,0.00,,2013-11-10 22:43:00,
2013-11-10 17:54:00,44.0,30.0,30.32,North,0,0.0,0.0,57,0.00,,,0.00,,2013-11-10 22:54:00,
2013-11-10 18:22:00,41.0,29.0,30.32,North,0,0.0,0.0,61,0.00,,,0.00,,2013-11-10 23:22:00,
2013-11-10 18:34:00,41.0,29.0,30.32,North,0,0.0,0.0,61,0.00,,,0.00,,2013-11-10 23:34:00,
2013-11-10 18:52:00,40.0,28.0,30.32,North,0,0.0,0.0,63,0.00,,,0.00,,2013-11-10 23:52:00,
2013-11-10 19:22:00,39.0,28.0,30.32,North,0,0.0,0.0,64,0.00,,,0.00,,2013-11-11 00:22:00,
2013-11-10 19:42:00,38.0,28.0,30.32,North,0,0.0,0.0,66,0.00,,,0.00,,2013-11-11 00:42:00,
2013-11-10 19:52:00,38.0,28.0,30.32,North,0,0.0,0.0,66,0.00,,,0.00,,2013-11-11 00:52:00,
2013-11-10 20:22:00,37.0,28.0,30.32,North,0,0.0,0.0,69,0.00,,,0.00,,2013-11-11 01:22:00,
2013-11-10 20:42:00,37.0,28.0,30.32,North,0,0.0,0.0,70,0.00,,,0.00,,2013-11-11 01:42:00,
2013-11-10 20:52:00,36.0,27.0,30.31,North,0,0.0,0.0,70,0.00,,,0.00,,2013-11-11 01:52:00,
2013-11-10 21:11:00,36.0,28.0,30.31,North,0,0.0,0.0,71,0.00,,,0.00,,2013-11-11 02:11:00,
2013-11-10 21:21:00,36.0,28.0,30.31,North,0,0.0,0.0,71,0.00,,,0.00,,2013-11-11 02:21:00,
2013-11-10 21:42:00,36.0,28.0,30.31,North,0,0.0,0.0,72,0.00,,,0.00,,2013-11-11 02:42:00,
2013-11-10 21:52:00,36.0,28.0,30.31,North,0,0.0,0.0,72,0.00,,,0.00,,2013-11-11 02:52:00,
2013-11-10 22:12:00,35.0,27.0,30.31,North,0,0.0,0.0,73,0.00,,,0.00,,2013-11-11 03:12:00,
2013-11-10 22:22:00,35.0,27.0,30.31,North,0,0.0,0.0,73,0.00,,,0.00,,2013-11-11 03:22:00,
2013-11-10 22:43:00,36.0,28.0,30.29,North,0,0.0,0.0,72,0.00,,,0.00,,2013-11-11 03:43:00,
2013-11-10 22:55:00,36.0,28.0,30.29,North,0,0.0,0.0,72,0.00,,,0.00,,2013-11-11 03:55:00,
2013-11-10 23:14:00,36.0,28.0,30.29,North,0,0.0,0.0,72,0.00,,,0.00,,2013-11-11 04:14:00,
2013-11-10 23:24:00,35.0,27.0,30.29,North,0,0.0,0.0,72,0.00,,,0.00,,2013-11-11 04:24:00,
2013-11-10 23:43:00,35.0,28.0,30.29,North,0,0.0,0.0,74,0.00,,,0.00,,2013-11-11 04:43:00,
2013-11-10 23:53:00,35.0,28.0,30.29,North,0,0.0,0.0,74,0.00,,,0.00,,2013-11-11 04:53:00,